Paynesville, MN

12:29 PM CST on November 20, 2017 (GMT -0600)
Paynesville

Weather History for KPEX - April, 2013

Change the Weather History Date:

Saturday, April 6, 2013

  Actual Average (KLJF) Record (KLJF)
Temperature  
Mean Temperature 39 °F -  
Max Temperature 44 °F 54 °F 86 °F (1991)
Min Temperature 34 °F 30 °F 5 °F (1979)
Degree Days  
Heating Degree Days 26    
Moisture  
Dew Point 32 °F    
Average Humidity 79    
Maximum Humidity 90    
Minimum Humidity 70    
Precipitation  
Precipitation 0.00 in - - ()
Sea Level Pressure  
Sea Level Pressure 29.65 in    
Wind  
Wind Speed 12 mph (NE)    
Max Wind Speed 18 mph    
Max Gust Speed 24 mph    
Visibility 10 miles    
Events Rain    
Averages and records for this station are not official NWS values.
T = Trace of Precipitation, MM = Missing Value Source: NWS Daily Summary

Daily Weather History Graph

Daily Weather History Graph

Search for Another Location

Airport or City:

Trip Planner

Search our weather history database for the weather conditions in past years. The results will help you decide how hot, cold, wet, or windy it might be!

Date:

Astronomy

Apr. 06, 2013 Rise Set
Actual Time 6:49 AM CDT 7:53 PM CDT
Civil Twilight 6:19 AM CDT 8:24 PM CDT
Nautical Twilight 5:43 AM CDT 9:00 PM CDT
Astronomical Twilight 5:05 AM CDT 9:38 PM CDT
Moon 4:44 AM CDT (4/6) 4:14 PM CDT (4/6)
Length of Visible Light 14h 04m
Length of Day
13h 04m
Waning Crescent, 15% of the Moon is Illuminated
Apr 6
Waning Crescent
Apr 10
New
Apr 18
First Quarter
Apr 25
Full
May 2
Last Quarter

Hourly Weather History & Observations

Time (CDT) Temp. Windchill Dew Point Humidity Pressure Visibility Wind Dir Wind Speed Gust Speed Precip Events Conditions
12:13 AM 34.3 °F 24.2 °F 30.2 °F 85% 29.81 in 10.0 mi ESE 16.1 mph 21.9 mph N/A   Scattered Clouds
12:33 AM 34.7 °F 24.7 °F 30.0 °F 83% 29.80 in 10.0 mi ESE 16.1 mph - N/A   Clear
12:53 AM 34.7 °F 25.5 °F 30.0 °F 83% 29.79 in 10.0 mi ESE 13.8 mph 21.9 mph N/A   Clear
1:13 AM 34.7 °F 24.7 °F 29.8 °F 82% 29.78 in 10.0 mi ESE 16.1 mph 20.7 mph N/A   Clear
1:33 AM 35.8 °F 25.7 °F 29.3 °F 77% 29.77 in 10.0 mi ESE 17.3 mph 24.2 mph N/A   Clear
1:53 AM 35.8 °F 25.7 °F 29.3 °F 77% 29.76 in 10.0 mi ESE 17.3 mph 24.2 mph N/A   Scattered Clouds
2:13 AM 36.5 °F 26.3 °F 29.3 °F 75% 29.74 in 10.0 mi ESE 18.4 mph 24.2 mph N/A   Mostly Cloudy
2:33 AM 36.0 °F 26.7 °F 29.5 °F 77% 29.73 in 10.0 mi ESE 15.0 mph - N/A   Overcast
2:53 AM 36.3 °F 27.1 °F 29.7 °F 77% 29.72 in 10.0 mi ESE 15.0 mph 19.6 mph N/A   Overcast
3:13 AM 36.5 °F 27.4 °F 29.3 °F 75% 29.70 in 10.0 mi ESE 15.0 mph 21.9 mph N/A   Overcast
3:32 AM 36.7 °F 28.4 °F 29.3 °F 75% 29.69 in 10.0 mi ESE 12.7 mph 16.1 mph N/A   Mostly Cloudy
3:53 AM 36.0 °F 28.0 °F 29.7 °F 78% 29.68 in 10.0 mi ESE 11.5 mph 20.7 mph N/A   Mostly Cloudy
4:13 AM 36.5 °F 29.7 °F 29.7 °F 76% 29.68 in 10.0 mi East 9.2 mph 16.1 mph N/A   Overcast
4:33 AM 36.5 °F 28.7 °F 29.7 °F 76% 29.66 in 10.0 mi ESE 11.5 mph 21.9 mph N/A   Overcast
4:53 AM 36.5 °F 27.8 °F 29.8 °F 77% 29.65 in 10.0 mi ESE 13.8 mph - N/A   Overcast
5:13 AM 36.5 °F 29.2 °F 29.8 °F 77% 29.64 in 10.0 mi East 10.4 mph - N/A   Scattered Clouds
5:33 AM 36.5 °F 29.7 °F 30.0 °F 77% 29.65 in 10.0 mi East 9.2 mph 18.4 mph N/A   Scattered Clouds
5:53 AM 36.5 °F 28.7 °F 30.2 °F 78% 29.63 in 10.0 mi East 11.5 mph - N/A   Overcast
6:13 AM 36.5 °F 28.7 °F 30.2 °F 78% 29.62 in 10.0 mi East 11.5 mph - N/A   Overcast
6:32 AM 36.7 °F 28.9 °F 30.4 °F 78% 29.62 in 10.0 mi ESE 11.5 mph - N/A   Overcast
6:53 AM 36.9 °F 27.5 °F 30.6 °F 78% 29.60 in 10.0 mi ESE 16.1 mph - N/A   Overcast
7:13 AM 37.0 °F 29.8 °F 31.1 °F 79% 29.60 in 10.0 mi ESE 10.4 mph - N/A   Light Drizzle
7:32 AM 37.4 °F 30.3 °F 31.5 °F 79% 29.61 in 10.0 mi ESE 10.4 mph - N/A   Overcast
7:53 AM 37.4 °F 30.3 °F 31.6 °F 80% 29.60 in 10.0 mi ESE 10.4 mph 16.1 mph N/A   Overcast
8:13 AM 37.8 °F 29.8 °F 32.0 °F 80% 29.58 in 10.0 mi ESE 12.7 mph 17.3 mph N/A   Scattered Clouds
8:33 AM 38.3 °F 30.5 °F 32.0 °F 78% 29.58 in 10.0 mi ESE 12.7 mph - N/A   Clear
8:53 AM 39.2 °F 31.2 °F 32.0 °F 75% 29.56 in 10.0 mi ESE 13.8 mph - N/A   Clear
9:13 AM 40.1 °F 32.7 °F 32.0 °F 73% 29.56 in 10.0 mi ESE 12.7 mph 18.4 mph N/A   Clear
9:33 AM 41.0 °F 34.3 °F 32.4 °F 71% 29.55 in 10.0 mi ESE 11.5 mph - N/A   Clear
9:53 AM 41.0 °F 34.7 °F 32.4 °F 71% 29.54 in 10.0 mi ESE 10.4 mph 16.1 mph N/A   Clear
10:13 AM 41.4 °F 36.2 °F 33.4 °F 73% 29.54 in 10.0 mi ESE 8.1 mph - N/A   Scattered Clouds
10:33 AM 41.9 °F 36.9 °F 33.4 °F 72% 29.54 in 10.0 mi East 8.1 mph - N/A   Scattered Clouds
10:53 AM 42.3 °F 39.4 °F 33.6 °F 71% 29.55 in 10.0 mi East 4.6 mph - N/A   Mostly Cloudy
11:13 AM 42.4 °F 39.6 °F 33.6 °F 71% 29.55 in 10.0 mi East 4.6 mph - N/A   Mostly Cloudy
11:33 AM 43.7 °F 42.1 °F 34.5 °F 70% 29.56 in 10.0 mi NE 3.5 mph - N/A   Mostly Cloudy
11:53 AM 43.3 °F 41.7 °F 34.2 °F 70% 29.57 in 10.0 mi North 3.5 mph - N/A   Overcast
12:12 PM 43.7 °F 41.1 °F 34.5 °F 70% 29.56 in 10.0 mi NNE 4.6 mph - N/A   Overcast
12:33 PM 44.2 °F - 35.1 °F 70% 29.56 in 10.0 mi Calm Calm - N/A   Overcast
12:52 PM 43.5 °F 40.1 °F 35.1 °F 72% 29.56 in 10.0 mi North 5.8 mph - N/A   Overcast
1:13 PM 41.9 °F 36.9 °F 36.0 °F 79% 29.55 in 10.0 mi North 8.1 mph - N/A Rain Rain
1:33 PM 41.2 °F 37.3 °F 35.4 °F 80% 29.56 in 10.0 mi North 5.8 mph - N/A Rain Light Rain
1:53 PM 41.2 °F - 34.9 °F 78% 29.57 in 10.0 mi Calm Calm - N/A   Light Drizzle
2:13 PM 40.3 °F 34.9 °F 35.1 °F 82% 29.57 in 10.0 mi NNW 8.1 mph - N/A Rain Rain
2:33 PM 39.7 °F 34.3 °F 33.6 °F 79% 29.58 in 10.0 mi NNW 8.1 mph 16.1 mph N/A Rain Light Rain
2:53 PM 39.2 °F 33.6 °F 32.7 °F 78% 29.58 in 10.0 mi North 8.1 mph - N/A   Overcast
3:13 PM 39.4 °F 31.8 °F 33.3 °F 79% 29.58 in 10.0 mi NNW 12.7 mph 16.1 mph N/A   Overcast
3:33 PM 40.5 °F 34.6 °F 33.4 °F 76% 29.59 in 10.0 mi NNW 9.2 mph 19.6 mph N/A   Mostly Cloudy
3:53 PM 41.9 °F 35.9 °F 34.5 °F 75% 29.60 in 10.0 mi NNW 10.4 mph - N/A   Mostly Cloudy
4:13 PM 41.7 °F 35.6 °F 34.7 °F 76% 29.61 in 10.0 mi NW 10.4 mph 16.1 mph N/A   Overcast
4:33 PM 40.5 °F 33.2 °F 33.8 °F 77% 29.61 in 10.0 mi NNW 12.7 mph 20.7 mph N/A   Overcast
4:53 PM 39.7 °F 33.2 °F 33.6 °F 79% 29.63 in 10.0 mi NW 10.4 mph 19.6 mph N/A   Overcast
5:13 PM 39.6 °F 32.5 °F 33.6 °F 79% 29.63 in 10.0 mi NW 11.5 mph 17.3 mph N/A   Overcast
5:33 PM 40.3 °F 33.4 °F 33.8 °F 78% 29.64 in 10.0 mi NW 11.5 mph 19.6 mph N/A   Overcast
5:53 PM 40.6 °F 33.8 °F 33.6 °F 76% 29.65 in 10.0 mi NW 11.5 mph - N/A   Mostly Cloudy
6:13 PM 40.5 °F 32.5 °F 33.4 °F 76% 29.66 in 10.0 mi NW 15.0 mph 19.6 mph N/A   Mostly Cloudy
6:33 PM 40.1 °F 32.7 °F 33.3 °F 77% 29.67 in 10.0 mi NW 12.7 mph 16.1 mph N/A   Overcast
6:53 PM 39.2 °F 31.6 °F 32.9 °F 78% 29.69 in 10.0 mi NW 12.7 mph 18.4 mph N/A   Overcast
7:12 PM 38.8 °F 31.2 °F 32.9 °F 79% 29.70 in 10.0 mi NW 12.7 mph 18.4 mph N/A   Overcast
7:33 PM 38.3 °F 33.2 °F 32.9 °F 81% 29.70 in 10.0 mi NW 6.9 mph - N/A   Overcast
7:53 PM 37.9 °F 31.5 °F 32.9 °F 82% 29.70 in 10.0 mi NW 9.2 mph - N/A   Overcast
8:13 PM 37.0 °F 29.3 °F 32.5 °F 84% 29.72 in 10.0 mi NW 11.5 mph - N/A   Overcast
8:32 PM 36.5 °F 30.3 °F 32.7 °F 86% 29.72 in 10.0 mi NW 8.1 mph - N/A   Overcast
8:53 PM 36.1 °F 29.9 °F 32.5 °F 87% 29.73 in 7.0 mi WNW 8.1 mph - N/A   Overcast
9:13 PM 35.8 °F 29.4 °F 32.4 °F 87% 29.74 in 7.0 mi WNW 8.1 mph - N/A   Overcast
9:33 PM 35.6 °F 29.2 °F 32.0 °F 87% 29.75 in 10.0 mi WNW 8.1 mph - N/A   Overcast
9:53 PM 35.6 °F 29.2 °F 32.0 °F 87% 29.75 in 10.0 mi WNW 8.1 mph - N/A   Overcast
10:13 PM 35.1 °F 28.6 °F 32.0 °F 89% 29.75 in 10.0 mi WNW 8.1 mph - N/A   Overcast
10:33 PM 35.1 °F 29.3 °F 32.0 °F 89% 29.76 in 10.0 mi WNW 6.9 mph - N/A   Overcast
10:53 PM 34.7 °F 29.6 °F 32.0 °F 90% 29.76 in 10.0 mi WNW 5.8 mph - N/A   Overcast
11:13 PM 34.7 °F 27.5 °F 31.8 °F 89% 29.77 in 10.0 mi WNW 9.2 mph - N/A   Overcast
11:33 PM 34.3 °F 26.5 °F 31.6 °F 90% 29.78 in 10.0 mi West 10.4 mph - N/A   Overcast
11:53 PM 34.2 °F 28.2 °F 31.6 °F 90% 29.79 in 10.0 mi WNW 6.9 mph - N/A   Overcast